| time (UTC) | temp C | wind direction | speed KPH | gust KPH | rain 1hr cm | rain 24hr cm | rain mn cm | humidity % | barometer mb |
| 20260510130739 | 12 | 166 | 1.6 | 8.0 | 0.00 | 0.58 | 0.00 | 89 | 1010.8 |
| 20260510130231 | 12 | 181 | 3.2 | 6.4 | 0.00 | 0.58 | 0.00 | 90 | 1010.8 |
| 20260510125743 | 12 | 152 | 3.2 | 6.4 | 0.00 | 0.58 | 0.00 | 90 | 1010.8 |
| 20260510125236 | 12 | 174 | 3.2 | 4.8 | 0.00 | 0.58 | 0.00 | 91 | 1010.8 |
| 20260510124729 | 11 | 196 | 1.6 | 4.8 | 0.00 | 0.58 | 0.00 | 91 | 1010.8 |
| 20260510124240 | 11 | 153 | 1.6 | 3.2 | 0.00 | 0.58 | 0.00 | 91 | 1010.8 |
| 20260510123750 | 11 | 138 | 1.6 | 3.2 | 0.00 | 0.58 | 0.00 | 91 | 1010.7 |
| 20260510123240 | 11 | 133 | 1.6 | 3.2 | 0.00 | 0.58 | 0.00 | 91 | 1010.8 |
| 20260510122731 | 11 | 133 | 1.6 | 3.2 | 0.00 | 0.58 | 0.00 | 91 | 1010.9 |
| 20260510122301 | 11 | 162 | 1.6 | 4.8 | 0.00 | 0.58 | 0.00 | 91 | 1010.8 |
| 20260510121733 | 11 | 136 | 1.6 | 4.8 | 0.00 | 0.58 | 0.00 | 91 | 1010.7 |
| 20260510121244 | 11 | 134 | 1.6 | 3.2 | 0.00 | 0.69 | 0.00 | 92 | 1010.7 |
| 20260510120739 | 11 | 168 | 1.6 | 4.8 | 0.00 | 0.69 | 0.00 | 92 | 1010.7 |
| 20260510120230 | 11 | 171 | 1.6 | 4.8 | 0.00 | 0.69 | 0.00 | 92 | 1010.6 |
| 20260510115742 | 11 | 127 | 1.6 | 4.8 | 0.00 | 0.69 | 0.00 | 93 | 1010.6 |
| 20260510115235 | 11 | 97 | 1.6 | 4.8 | 0.00 | 0.69 | 0.00 | 93 | 1010.6 |
| 20260510114807 | 11 | 131 | 1.6 | 4.8 | 0.00 | 0.69 | 0.00 | 93 | 1010.5 |
| 20260510114255 | 11 | 152 | 1.6 | 4.8 | 0.00 | 0.69 | 0.00 | 93 | 1010.4 |
| 20260510113729 | 11 | 165 | 1.6 | 4.8 | 0.00 | 0.69 | 0.00 | 94 | 1010.5 |
| 20260510113303 | 11 | 188 | 1.6 | 4.8 | 0.00 | 0.69 | 0.00 | 94 | 1010.5 |
| 20260510112756 | 10 | 162 | 1.6 | 3.2 | 0.00 | 0.69 | 0.00 | 94 | 1010.4 |
| 20260510112246 | 10 | 162 | 1.6 | 3.2 | 0.00 | 0.69 | 0.00 | 94 | 1010.2 |
| 20260510111738 | 10 | 162 | 1.6 | 3.2 | 0.00 | 0.69 | 0.00 | 94 | 1010.2 |
| 20260510111232 | 10 | 185 | 0.0 | 3.2 | 0.00 | 0.71 | 0.00 | 94 | 1010.3 |
| 20260510110746 | 10 | 185 | 0.0 | 3.2 | 0.00 | 0.71 | 0.00 | 94 | 1010.2 |
| 20260510110240 | 10 | 177 | 1.6 | 3.2 | 0.00 | 0.71 | 0.00 | 94 | 1010.3 |
| 20260510105734 | 10 | 199 | 3.2 | 6.4 | 0.00 | 0.71 | 0.00 | 94 | 1010.2 |
| 20260510105227 | 10 | 203 | 1.6 | 6.4 | 0.00 | 0.71 | 0.00 | 94 | 1010.2 |
| 20260510104742 | 10 | 189 | 3.2 | 4.8 | 0.00 | 0.71 | 0.00 | 95 | 1010.2 |
| 20260510104236 | 10 | 188 | 3.2 | 4.8 | 0.00 | 0.71 | 0.00 | 94 | 1010.1 |
| 20260510103729 | 10 | 193 | 1.6 | 4.8 | 0.00 | 0.71 | 0.00 | 94 | 1010.1 |
| 20260510103241 | 10 | 187 | 1.6 | 3.2 | 0.00 | 0.71 | 0.00 | 94 | 1010.1 |
| 20260510102733 | 10 | 125 | 1.6 | 3.2 | 0.00 | 0.71 | 0.00 | 94 | 1009.9 |
| 20260510102227 | 10 | 110 | 0.0 | 1.6 | 0.00 | 0.71 | 0.00 | 94 | 1009.8 |
| 20260510101738 | 10 | 110 | 0.0 | 1.6 | 0.00 | 0.71 | 0.00 | 94 | 1009.6 |
| 20260510101230 | 10 | 142 | 0.0 | 1.6 | 0.00 | 0.74 | 0.00 | 94 | 1009.6 |
| 20260510100803 | 10 | 142 | 0.0 | 3.2 | 0.00 | 0.74 | 0.00 | 94 | 1009.4 |
| 20260510100232 | 10 | 142 | 1.6 | 3.2 | 0.00 | 0.74 | 0.00 | 94 | 1009.3 |
| 20260510095745 | 10 | 152 | 1.6 | 3.2 | 0.00 | 0.74 | 0.00 | 94 | 1009.4 |
| 20260510095237 | 10 | 156 | 1.6 | 3.2 | 0.00 | 0.74 | 0.00 | 94 | 1009.2 |
| 20260510094729 | 10 | 137 | 1.6 | 4.8 | 0.00 | 0.74 | 0.00 | 94 | 1009.1 |
| 20260510094241 | 10 | 147 | 3.2 | 4.8 | 0.00 | 0.74 | 0.00 | 94 | 1009.1 |
| 20260510093735 | 10 | 154 | 1.6 | 3.2 | 0.00 | 0.74 | 0.00 | 95 | 1009.1 |
| 20260510093228 | 10 | 141 | 1.6 | 3.2 | 0.00 | 0.74 | 0.00 | 95 | 1009.0 |
| 20260510092736 | 10 | 209 | 1.6 | 3.2 | 0.00 | 0.74 | 0.00 | 95 | 1009.0 |
| 20260510092230 | 10 | 184 | 1.6 | 3.2 | 0.00 | 0.74 | 0.00 | 95 | 1008.9 |
| 20260510091741 | 10 | 231 | 1.6 | 4.8 | 0.00 | 0.74 | 0.00 | 95 | 1008.9 |
| 20260510091236 | 10 | 203 | 1.6 | 4.8 | 0.00 | 0.79 | 0.00 | 95 | 1008.9 |
| 20260510090730 | 10 | 137 | 1.6 | 3.2 | 0.00 | 0.79 | 0.00 | 95 | 1008.8 |
| 20260510090241 | 10 | 151 | 1.6 | 4.8 | 0.00 | 0.79 | 0.00 | 95 | 1008.8 |
| 20260510085732 | 10 | 160 | 3.2 | 4.8 | 0.00 | 0.79 | 0.00 | 95 | 1008.7 |
| 20260510085243 | 10 | 193 | 3.2 | 4.8 | 0.00 | 0.79 | 0.00 | 95 | 1008.7 |
| 20260510084737 | 10 | 150 | 1.6 | 6.4 | 0.00 | 0.79 | 0.00 | 95 | 1008.7 |
| 20260510084231 | 10 | 184 | 1.6 | 6.4 | 0.00 | 0.79 | 0.00 | 95 | 1008.9 |
| 20260510083744 | 10 | 181 | 1.6 | 4.8 | 0.00 | 0.79 | 0.00 | 95 | 1008.9 |
| 20260510083236 | 10 | 201 | 3.2 | 4.8 | 0.00 | 0.79 | 0.00 | 95 | 1008.9 |
| 20260510082746 | 10 | 190 | 1.6 | 4.8 | 0.00 | 0.79 | 0.00 | 95 | 1008.9 |
| 20260510082238 | 10 | 162 | 3.2 | 4.8 | 0.00 | 0.79 | 0.00 | 94 | 1009.0 |
| 20260510081731 | 10 | 203 | 3.2 | 4.8 | 0.00 | 0.79 | 0.00 | 95 | 1008.9 |
| 20260510081243 | 10 | 185 | 1.6 | 3.2 | 0.00 | 0.79 | 0.00 | 95 | 1008.7 |
| 20260510080735 | 10 | 141 | 1.6 | 3.2 | 0.00 | 0.79 | 0.00 | 95 | 1008.7 |
| 20260510080246 | 10 | 141 | 0.0 | 3.2 | 0.00 | 0.79 | 0.00 | 95 | 1008.9 |
| 20260510075739 | 10 | 138 | 0.0 | 3.2 | 0.00 | 0.79 | 0.00 | 95 | 1009.0 |
| 20260510075231 | 10 | 160 | 1.6 | 3.2 | 0.00 | 0.79 | 0.00 | 95 | 1009.1 |
| 20260510074742 | 10 | 278 | 0.0 | 3.2 | 0.00 | 0.79 | 0.00 | 95 | 1009.1 |
| 20260510074232 | 10 | 227 | 1.6 | 4.8 | 0.00 | 0.79 | 0.00 | 95 | 1008.7 |
| 20260510073744 | 10 | 258 | 1.6 | 4.8 | 0.00 | 0.79 | 0.00 | 94 | 1008.9 |
| 20260510073235 | 10 | 228 | 0.0 | 3.2 | 0.00 | 0.79 | 0.00 | 94 | 1008.8 |
| 20260510072739 | 10 | 241 | 1.6 | 3.2 | 0.00 | 0.79 | 0.00 | 94 | 1008.9 |
| 20260510072232 | 10 | 188 | 1.6 | 3.2 | 0.00 | 0.79 | 0.00 | 94 | 1009.2 |
| 20260510071804 | 10 | 206 | 1.6 | 4.8 | 0.00 | 0.79 | 0.00 | 94 | 1009.3 |
| 20260510071254 | 10 | 197 | 1.6 | 4.8 | 0.00 | 0.79 | 0.00 | 94 | 1009.3 |
| 20260510070746 | 10 | 200 | 1.6 | 4.8 | 0.00 | 0.79 | 0.00 | 94 | 1009.3 |
| 20260510070238 | 10 | 221 | 1.6 | 3.2 | 0.00 | 0.79 | 0.00 | 94 | 1009.3 |
| 20260510065730 | 10 | 310 | 0.0 | 3.2 | 0.00 | 0.79 | 0.00 | 94 | 1009.4 |
| 20260510065241 | 10 | 84 | 0.0 | 3.2 | 0.00 | 0.79 | 0.00 | 94 | 1009.5 |
| 20260510064733 | 10 | 167 | 0.0 | 3.2 | 0.00 | 0.79 | 0.00 | 94 | 1009.5 |
| 20260510064246 | 10 | 167 | 1.6 | 3.2 | 0.00 | 0.79 | 0.00 | 94 | 1009.6 |
| 20260510063737 | 10 | 166 | 3.2 | 4.8 | 0.00 | 0.79 | 0.00 | 94 | 1009.7 |
| 20260510063231 | 10 | 174 | 1.6 | 4.8 | 0.00 | 0.79 | 0.00 | 93 | 1009.6 |
| 20260510062743 | 10 | 166 | 3.2 | 4.8 | 0.00 | 0.79 | 0.00 | 93 | 1009.5 |
| 20260510062256 | 10 | 166 | 1.6 | 4.8 | 0.00 | 0.79 | 0.00 | 93 | 1009.5 |
| 20260510061743 | 10 | 189 | 0.0 | 1.6 | 0.00 | 0.79 | 0.00 | 93 | 1009.3 |
| 20260510061234 | 11 | 190 | 0.0 | 3.2 | 0.00 | 0.79 | 0.00 | 93 | 1009.4 |
| 20260510060743 | 11 | 189 | 1.6 | 3.2 | 0.00 | 0.79 | 0.00 | 93 | 1009.5 |
| 20260510060235 | 11 | 181 | 1.6 | 3.2 | 0.00 | 0.79 | 0.00 | 93 | 1009.4 |
| 20260510055727 | 11 | 181 | 1.6 | 3.2 | 0.00 | 0.79 | 0.00 | 93 | 1009.3 |
| 20260510055239 | 11 | 185 | 1.6 | 3.2 | 0.00 | 0.79 | 0.00 | 93 | 1009.2 |
| 20260510054729 | 11 | 209 | 1.6 | 3.2 | 0.00 | 0.79 | 0.00 | 93 | 1009.3 |
| 20260510054240 | 11 | 194 | 1.6 | 4.8 | 0.00 | 0.79 | 0.00 | 93 | 1009.0 |
| 20260510053734 | 11 | 178 | 3.2 | 4.8 | 0.00 | 0.79 | 0.00 | 93 | 1009.1 |
| 20260510053246 | 11 | 172 | 1.6 | 4.8 | 0.00 | 0.79 | 0.00 | 93 | 1009.2 |
| 20260510052738 | 11 | 187 | 1.6 | 4.8 | 0.00 | 0.79 | 0.00 | 93 | 1009.2 |
| 20260510052232 | 11 | 176 | 3.2 | 4.8 | 0.00 | 0.79 | 0.00 | 93 | 1009.1 |
| 20260510051745 | 11 | 230 | 3.2 | 4.8 | 0.00 | 0.79 | 0.00 | 92 | 1009.2 |
| 20260510051257 | 11 | 196 | 1.6 | 6.4 | 0.00 | 0.79 | 0.00 | 92 | 1009.2 |
| 20260510050729 | 11 | 232 | 3.2 | 8.0 | 0.00 | 0.79 | 0.00 | 93 | 1009.0 |
| 20260510050240 | 11 | 200 | 3.2 | 4.8 | 0.00 | 0.79 | 0.00 | 93 | 1009.1 |
| 20260510045732 | 11 | 212 | 1.6 | 3.2 | 0.00 | 0.79 | 0.00 | 93 | 1009.0 |
| 20260510045243 | 11 | 191 | 1.6 | 3.2 | 0.00 | 0.79 | 0.00 | 93 | 1009.0 |
| 20260510044736 | 11 | 194 | 1.6 | 3.2 | 0.00 | 0.79 | 0.00 | 93 | 1009.1 |
| 20260510044307 | 11 | 189 | 1.6 | 4.8 | 0.00 | 0.79 | 0.00 | 93 | 1009.1 |
| 20260510043738 | 11 | 131 | 1.6 | 4.8 | 0.00 | 0.79 | 0.00 | 93 | 1009.2 |
| 20260510043229 | 11 | 163 | 3.2 | 4.8 | 0.00 | 0.79 | 0.00 | 93 | 1009.2 |
| 20260510042801 | 11 | 156 | 1.6 | 6.4 | 0.00 | 0.79 | 0.00 | 93 | 1009.1 |
| 20260510042234 | 11 | 193 | 1.6 | 6.4 | 0.00 | 0.79 | 0.00 | 92 | 1009.1 |
| 20260510041801 | 11 | 181 | 1.6 | 4.8 | 0.00 | 0.79 | 0.00 | 92 | 1009.2 |
| 20260510041234 | 11 | 237 | 1.6 | 6.4 | 0.00 | 0.79 | 0.79 | 92 | 1009.1 |
| 20260510040745 | 11 | 150 | 3.2 | 6.4 | 0.00 | 0.79 | 0.79 | 92 | 1009.1 |
| 20260510040237 | 11 | 201 | 1.6 | 4.8 | 0.00 | 0.79 | 0.79 | 92 | 1008.9 |
| 20260510035747 | 11 | 168 | 1.6 | 6.4 | 0.00 | 0.79 | 0.79 | 92 | 1009.1 |
| 20260510035240 | 11 | 152 | 3.2 | 6.4 | 0.00 | 0.79 | 0.79 | 92 | 1009.0 |
| 20260510034732 | 11 | 165 | 3.2 | 9.7 | 0.00 | 0.79 | 0.79 | 93 | 1009.1 |
| 20260510034245 | 11 | 179 | 1.6 | 3.2 | 0.00 | 0.79 | 0.79 | 93 | 1009.1 |
| 20260510033738 | 11 | 221 | 1.6 | 8.0 | 0.00 | 0.79 | 0.79 | 93 | 1009.1 |
| 20260510033229 | 11 | 166 | 3.2 | 8.0 | 0.00 | 0.79 | 0.79 | 93 | 1009.1 |
| 20260510032741 | 11 | 187 | 1.6 | 3.2 | 0.00 | 0.79 | 0.79 | 93 | 1009.2 |
| 20260510032235 | 11 | 168 | 1.6 | 4.8 | 0.00 | 0.79 | 0.79 | 93 | 1009.1 |
| 20260510031747 | 11 | 191 | 1.6 | 4.8 | 0.00 | 0.79 | 0.79 | 93 | 1009.1 |
| 20260510031237 | 11 | 129 | 1.6 | 4.8 | 0.00 | 0.79 | 0.79 | 94 | 1009.0 |
| 20260510030746 | 11 | 179 | 1.6 | 4.8 | 0.00 | 0.79 | 0.79 | 94 | 1009.1 |
| 20260510030236 | 11 | 171 | 1.6 | 6.4 | 0.00 | 0.79 | 0.79 | 94 | 1009.1 |
| 20260510025729 | 11 | 189 | 1.6 | 6.4 | 0.00 | 0.79 | 0.79 | 94 | 1009.1 |
| 20260510025239 | 11 | 133 | 1.6 | 4.8 | 0.00 | 0.79 | 0.79 | 94 | 1009.1 |
| 20260510024729 | 11 | 215 | 0.0 | 4.8 | 0.00 | 0.79 | 0.79 | 94 | 1009.2 |
| 20260510024242 | 11 | 176 | 0.0 | 0.0 | 0.00 | 0.79 | 0.79 | 94 | 1009.1 |
| 20260510023754 | 11 | 191 | 0.0 | 0.0 | 0.00 | 0.79 | 0.79 | 94 | 1009.1 |
| 20260510023307 | 11 | 175 | 0.0 | 0.0 | 0.00 | 0.79 | 0.79 | 94 | 1009.4 |
| 20260510022736 | 11 | 192 | 0.0 | 0.0 | 0.00 | 0.79 | 0.79 | 94 | 1009.4 |
| 20260510022227 | 11 | 192 | 0.0 | 0.0 | 0.00 | 0.79 | 0.79 | 94 | 1009.4 |
| 20260510021734 | 11 | 189 | 0.0 | 0.0 | 0.00 | 0.79 | 0.79 | 94 | 1009.3 |
| 20260510021246 | 11 | 179 | 0.0 | 0.0 | 0.00 | 0.79 | 0.79 | 94 | 1009.2 |
| 20260510020759 | 11 | 188 | 0.0 | 0.0 | 0.00 | 0.79 | 0.79 | 94 | 1009.2 |
| 20260510020232 | 11 | 185 | 0.0 | 0.0 | 0.00 | 0.79 | 0.79 | 94 | 1009.1 |
| 20260510015744 | 11 | 194 | 0.0 | 0.0 | 0.00 | 0.79 | 0.79 | 94 | 1009.3 |
| 20260510015236 | 11 | 193 | 0.0 | 0.0 | 0.00 | 0.79 | 0.79 | 94 | 1009.1 |
| 20260510014730 | 11 | 220 | 0.0 | 0.0 | 0.00 | 0.79 | 0.79 | 94 | 1009.4 |
| 20260510014243 | 11 | 179 | 0.0 | 0.0 | 0.00 | 0.79 | 0.79 | 94 | 1009.4 |
| 20260510013736 | 11 | 201 | 0.0 | 0.0 | 0.00 | 0.79 | 0.79 | 94 | 1009.3 |
| 20260510013229 | 11 | 201 | 0.0 | 0.0 | 0.00 | 0.79 | 0.79 | 94 | 1009.4 |
| 20260510012801 | 11 | 201 | 0.0 | 0.0 | 0.00 | 0.79 | 0.79 | 94 | 1009.1 |
| 20260510012232 | 11 | 201 | 0.0 | 0.0 | 0.00 | 0.79 | 0.79 | 94 | 1009.2 |
| 20260510011744 | 11 | 201 | 0.0 | 0.0 | 0.00 | 0.79 | 0.79 | 94 | 1009.1 |
| 20260510011236 | 11 | 201 | 0.0 | 0.0 | 0.00 | 0.79 | 0.79 | 94 | 1009.1 |
| 20260510010729 | 11 | 193 | 0.0 | 0.0 | 0.00 | 0.79 | 0.79 | 94 | 1009.1 |
| 20260510010241 | 11 | 212 | 0.0 | 0.0 | 0.00 | 0.79 | 0.79 | 94 | 1009.0 |
| 20260510005735 | 11 | 212 | 0.0 | 0.0 | 0.00 | 0.79 | 0.79 | 94 | 1009.1 |
| 20260510005228 | 11 | 193 | 0.0 | 0.0 | 0.00 | 0.79 | 0.79 | 94 | 1008.9 |
| 20260510004742 | 11 | 192 | 0.0 | 0.0 | 0.00 | 0.79 | 0.79 | 93 | 1008.9 |
| 20260510004255 | 11 | 203 | 0.0 | 0.0 | 0.00 | 0.79 | 0.79 | 93 | 1009.0 |
| 20260510003745 | 11 | 203 | 0.0 | 0.0 | 0.00 | 0.79 | 0.79 | 93 | 1008.9 |
| 20260510003255 | 11 | 203 | 0.0 | 0.0 | 0.00 | 0.79 | 0.79 | 93 | 1008.8 |
| 20260510002741 | 11 | 203 | 0.0 | 0.0 | 0.00 | 0.79 | 0.79 | 93 | 1008.9 |
| 20260510002232 | 11 | 203 | 0.0 | 0.0 | 0.00 | 0.79 | 0.79 | 93 | 1008.9 |
| 20260510001807 | 11 | 203 | 0.0 | 0.0 | 0.00 | 0.79 | 0.79 | 93 | 1008.8 |
| 20260510001239 | 11 | 203 | 0.0 | 0.0 | 0.00 | 0.79 | 0.79 | 92 | 1008.7 |
| 20260510000731 | 11 | 203 | 0.0 | 0.0 | 0.00 | 0.79 | 0.79 | 92 | 1008.5 |
| 20260510000241 | 11 | 203 | 0.0 | 0.0 | 0.00 | 0.79 | 0.79 | 92 | 1008.4 |
| 20260509235753 | 11 | 179 | 0.0 | 0.0 | 0.00 | 0.79 | 0.79 | 92 | 1008.3 |
| 20260509235244 | 11 | 179 | 0.0 | 1.6 | 0.00 | 0.79 | 0.79 | 92 | 1008.3 |
| 20260509234736 | 11 | 184 | 0.0 | 3.2 | 0.00 | 0.79 | 0.79 | 92 | 1008.2 |
| 20260509234229 | 11 | 184 | 0.0 | 3.2 | 0.00 | 0.79 | 0.79 | 92 | 1008.1 |
| 20260509233741 | 11 | 191 | 1.6 | 3.2 | 0.00 | 0.79 | 0.79 | 91 | 1008.1 |
| 20260509233233 | 11 | 157 | 1.6 | 3.2 | 0.00 | 0.79 | 0.79 | 91 | 1008.1 |
| 20260509232803 | 11 | 157 | 1.6 | 3.2 | 0.00 | 0.79 | 0.79 | 91 | 1008.0 |
| 20260509232234 | 11 | 196 | 0.0 | 3.2 | 0.00 | 0.79 | 0.79 | 91 | 1007.9 |
| 20260509231806 | 11 | 196 | 0.0 | 3.2 | 0.00 | 0.79 | 0.79 | 91 | 1007.7 |
| 20260509231237 | 11 | 196 | 0.0 | 3.2 | 0.00 | 0.79 | 0.79 | 91 | 1007.8 |
| 20260509230730 | 12 | 196 | 0.0 | 3.2 | 0.00 | 0.79 | 0.79 | 91 | 1007.7 |
| 20260509230241 | 12 | 189 | 1.6 | 4.8 | 0.00 | 0.79 | 0.79 | 91 | 1007.8 |
| 20260509225751 | 12 | 186 | 1.6 | 4.8 | 0.00 | 0.79 | 0.79 | 91 | 1007.7 |
| 20260509225238 | 12 | 161 | 1.6 | 4.8 | 0.00 | 0.79 | 0.79 | 91 | 1007.7 |
| 20260509224730 | 12 | 166 | 3.2 | 6.4 | 0.00 | 0.79 | 0.79 | 91 | 1007.6 |
| 20260509224242 | 12 | 214 | 3.2 | 6.4 | 0.00 | 0.79 | 0.79 | 90 | 1007.7 |
| 20260509223733 | 12 | 173 | 3.2 | 6.4 | 0.00 | 0.79 | 0.79 | 91 | 1007.7 |
| 20260509223245 | 12 | 133 | 3.2 | 6.4 | 0.00 | 0.79 | 0.79 | 90 | 1007.9 |
| 20260509222738 | 12 | 177 | 1.6 | 4.8 | 0.00 | 0.79 | 0.79 | 91 | 1007.9 |
| 20260509222228 | 12 | 158 | 1.6 | 4.8 | 0.00 | 0.79 | 0.79 | 91 | 1007.8 |
| 20260509221739 | 12 | 161 | 0.0 | 3.2 | 0.00 | 0.79 | 0.79 | 91 | 1008.0 |
| 20260509221252 | 12 | 158 | 1.6 | 3.2 | 0.00 | 0.79 | 0.79 | 92 | 1008.0 |
| 20260509220743 | 12 | 131 | 1.6 | 3.2 | 0.00 | 0.79 | 0.79 | 92 | 1007.9 |
| 20260509220235 | 12 | 194 | 1.6 | 4.8 | 0.00 | 0.79 | 0.79 | 92 | 1008.0 |
| 20260509215808 | 11 | 148 | 1.6 | 4.8 | 0.00 | 0.79 | 0.79 | 92 | 1007.9 |
| 20260509215239 | 11 | 216 | 1.6 | 4.8 | 0.00 | 0.79 | 0.79 | 93 | 1008.1 |
| 20260509214731 | 11 | 237 | 1.6 | 4.8 | 0.00 | 0.79 | 0.79 | 93 | 1008.1 |
| 20260509214304 | 11 | 221 | 1.6 | 4.8 | 0.00 | 0.79 | 0.79 | 93 | 1008.3 |
| 20260509213737 | 11 | 220 | 1.6 | 3.2 | 0.00 | 0.79 | 0.79 | 94 | 1008.3 |
| 20260509213250 | 11 | 165 | 0.0 | 4.8 | 0.00 | 0.79 | 0.79 | 94 | 1008.3 |
| 20260509212740 | 11 | 152 | 0.0 | 4.8 | 0.00 | 0.79 | 0.79 | 94 | 1008.3 |
| 20260509212233 | 11 | 168 | 1.6 | 4.8 | 0.00 | 0.79 | 0.79 | 94 | 1008.2 |
| 20260509211744 | 11 | 194 | 1.6 | 3.2 | 0.00 | 0.79 | 0.79 | 94 | 1008.2 |
| 20260509211235 | 11 | 132 | 1.6 | 4.8 | 0.00 | 0.79 | 0.79 | 94 | 1008.2 |
| 20260509210743 | 11 | 179 | 1.6 | 4.8 | 0.00 | 0.79 | 0.79 | 94 | 1008.3 |
| 20260509210236 | 11 | 125 | 3.2 | 4.8 | 0.00 | 0.79 | 0.79 | 95 | 1008.2 |
| 20260509205730 | 11 | 191 | 1.6 | 6.4 | 0.00 | 0.79 | 0.79 | 95 | 1008.3 |
| 20260509205242 | 11 | 208 | 1.6 | 6.4 | 0.00 | 0.79 | 0.79 | 95 | 1008.3 |
| 20260509204735 | 11 | 169 | 1.6 | 3.2 | 0.00 | 0.79 | 0.79 | 95 | 1008.4 |
| 20260509204246 | 11 | 161 | 1.6 | 3.2 | 0.00 | 0.79 | 0.79 | 95 | 1008.5 |
| 20260509203739 | 11 | 189 | 1.6 | 4.8 | 0.00 | 0.79 | 0.79 | 95 | 1008.6 |
| 20260509203231 | 11 | 160 | 1.6 | 4.8 | 0.00 | 0.79 | 0.79 | 95 | 1008.6 |
| 20260509202743 | 11 | 249 | 3.2 | 4.8 | 0.00 | 0.79 | 0.79 | 95 | 1008.6 |
| 20260509202236 | 11 | 189 | 1.6 | 4.8 | 0.00 | 0.79 | 0.79 | 96 | 1008.8 |
| 20260509201729 | 11 | 170 | 1.6 | 3.2 | 0.00 | 0.79 | 0.79 | 96 | 1008.7 |
| 20260509201242 | 11 | 204 | 1.6 | 6.4 | 0.00 | 0.79 | 0.79 | 96 | 1008.7 |
| 20260509200755 | 10 | 174 | 3.2 | 6.4 | 0.00 | 0.79 | 0.79 | 96 | 1008.9 |
| 20260509200246 | 10 | 191 | 0.0 | 0.0 | 0.00 | 0.79 | 0.79 | 96 | 1008.9 |
| 20260509195740 | 10 | 187 | 0.0 | 0.0 | 0.00 | 0.79 | 0.79 | 96 | 1008.9 |
| 20260509195253 | 10 | 191 | 0.0 | 0.0 | 0.00 | 0.79 | 0.79 | 96 | 1009.0 |
| 20260509194744 | 10 | 137 | 0.0 | 0.0 | 0.00 | 0.79 | 0.79 | 96 | 1009.1 |
| 20260509194237 | 10 | 131 | 0.0 | 1.6 | 0.00 | 0.79 | 0.79 | 96 | 1009.1 |
| 20260509193749 | 10 | 157 | 0.0 | 1.6 | 0.00 | 0.79 | 0.79 | 95 | 1009.2 |
| 20260509193242 | 10 | 146 | 0.0 | 1.6 | 0.00 | 0.79 | 0.79 | 95 | 1009.2 |
| 20260509192736 | 10 | 133 | 0.0 | 3.2 | 0.03 | 0.79 | 0.79 | 96 | 1009.3 |
| 20260509192250 | 10 | 205 | 0.0 | 4.8 | 0.03 | 0.79 | 0.79 | 95 | 1009.3 |
| 20260509191740 | 9 | 187 | 1.6 | 4.8 | 0.03 | 0.79 | 0.79 | 95 | 1009.4 |
| 20260509191233 | 9 | 137 | 1.6 | 4.8 | 0.03 | 0.79 | 0.79 | 95 | 1009.4 |
| 20260509190741 | 9 | 170 | 1.6 | 4.8 | 0.03 | 0.79 | 0.79 | 95 | 1009.5 |
| 20260509190232 | 9 | 191 | 1.6 | 3.2 | 0.03 | 0.79 | 0.79 | 95 | 1009.6 |
| 20260509185743 | 9 | 156 | 0.0 | 3.2 | 0.03 | 0.79 | 0.79 | 95 | 1009.6 |
| 20260509185234 | 9 | 165 | 1.6 | 3.2 | 0.03 | 0.79 | 0.79 | 95 | 1009.8 |
| 20260509184727 | 9 | 174 | 1.6 | 3.2 | 0.03 | 0.79 | 0.79 | 95 | 1009.9 |
| 20260509184258 | 9 | 181 | 1.6 | 4.8 | 0.03 | 0.79 | 0.79 | 95 | 1009.8 |
| 20260509183808 | 9 | 208 | 0.0 | 3.2 | 0.05 | 0.79 | 0.79 | 95 | 1009.9 |
| 20260509183241 | 9 | 153 | 1.6 | 4.8 | 0.05 | 0.79 | 0.79 | 95 | 1009.8 |
| 20260509182733 | 9 | 164 | 1.6 | 4.8 | 0.03 | 0.76 | 0.76 | 95 | 1009.8 |
| 20260509182239 | 8 | 185 | 1.6 | 3.2 | 0.03 | 0.76 | 0.76 | 95 | 1009.7 |
| 20260509181732 | 8 | 189 | 1.6 | 3.2 | 0.03 | 0.76 | 0.76 | 95 | 1009.7 |
| 20260509181244 | 8 | 178 | 1.6 | 3.2 | 0.03 | 0.76 | 0.76 | 95 | 1009.8 |
| 20260509180736 | 8 | 201 | 0.0 | 0.0 | 0.03 | 0.76 | 0.76 | 95 | 1010.0 |
| 20260509180228 | 8 | 201 | 0.0 | 1.6 | 0.03 | 0.76 | 0.76 | 95 | 1009.9 |
| 20260509175739 | 8 | 196 | 0.0 | 3.2 | 0.03 | 0.76 | 0.76 | 95 | 1009.9 |
| 20260509175250 | 8 | 196 | 1.6 | 3.2 | 0.05 | 0.76 | 0.76 | 95 | 1009.9 |
| 20260509174802 | 8 | 196 | 1.6 | 3.2 | 0.05 | 0.76 | 0.76 | 95 | 1009.9 |
| 20260509174232 | 8 | 188 | 1.6 | 3.2 | 0.05 | 0.76 | 0.76 | 95 | 1010.0 |
| 20260509173803 | 8 | 196 | 1.6 | 4.8 | 0.03 | 0.74 | 0.74 | 95 | 1010.1 |
| 20260509173236 | 8 | 178 | 1.6 | 3.2 | 0.03 | 0.74 | 0.74 | 95 | 1010.1 |
| 20260509172730 | 8 | 196 | 1.6 | 4.8 | 0.03 | 0.74 | 0.74 | 95 | 1010.1 |
| 20260509172306 | 8 | 170 | 3.2 | 4.8 | 0.05 | 0.74 | 0.74 | 95 | 1010.2 |
| 20260509171733 | 8 | 210 | 1.6 | 4.8 | 0.05 | 0.74 | 0.74 | 95 | 1010.2 |
| 20260509171306 | 8 | 183 | 1.6 | 4.8 | 0.05 | 0.74 | 0.74 | 95 | 1010.3 |
| 20260509170738 | 8 | 179 | 1.6 | 4.8 | 0.05 | 0.74 | 0.74 | 95 | 1010.5 |
| 20260509170231 | 8 | 182 | 3.2 | 4.8 | 0.05 | 0.74 | 0.74 | 95 | 1010.4 |
| 20260509165742 | 8 | 179 | 3.2 | 4.8 | 0.05 | 0.74 | 0.74 | 95 | 1010.4 |
| 20260509165235 | 8 | 120 | 3.2 | 6.4 | 0.03 | 0.71 | 0.71 | 95 | 1010.5 |
| 20260509164730 | 8 | 192 | 1.6 | 4.8 | 0.05 | 0.71 | 0.71 | 95 | 1010.5 |
| 20260509164239 | 8 | 210 | 1.6 | 4.8 | 0.05 | 0.71 | 0.71 | 95 | 1010.5 |
| 20260509163733 | 8 | 189 | 1.6 | 4.8 | 0.05 | 0.71 | 0.71 | 95 | 1010.5 |
| 20260509163228 | 8 | 196 | 0.0 | 3.2 | 0.05 | 0.71 | 0.71 | 95 | 1010.7 |
| 20260509162738 | 8 | 186 | 1.6 | 4.8 | 0.05 | 0.71 | 0.71 | 95 | 1010.6 |
| 20260509162247 | 8 | 191 | 1.6 | 4.8 | 0.05 | 0.69 | 0.69 | 95 | 1010.7 |
| 20260509161737 | 8 | 239 | 1.6 | 4.8 | 0.05 | 0.69 | 0.69 | 95 | 1010.7 |
| 20260509161247 | 8 | 197 | 0.0 | 4.8 | 0.08 | 0.69 | 0.69 | 95 | 1010.8 |
| 20260509160739 | 8 | 146 | 1.6 | 4.8 | 0.08 | 0.69 | 0.69 | 95 | 1011.0 |
| 20260509160251 | 8 | 138 | 1.6 | 4.8 | 0.10 | 0.69 | 0.69 | 95 | 1011.2 |
| 20260509155758 | 7 | 161 | 1.6 | 4.8 | 0.10 | 0.69 | 0.69 | 95 | 1011.1 |
| 20260509155228 | 7 | 188 | 1.6 | 4.8 | 0.13 | 0.69 | 0.69 | 95 | 1011.2 |
| 20260509154742 | 7 | 160 | 1.6 | 4.8 | 0.13 | 0.66 | 0.66 | 95 | 1011.1 |
| 20260509154234 | 7 | 147 | 1.6 | 3.2 | 0.13 | 0.66 | 0.66 | 95 | 1011.3 |
| 20260509153748 | 7 | 141 | 1.6 | 3.2 | 0.15 | 0.66 | 0.66 | 95 | 1011.4 |
| 20260509153240 | 7 | 160 | 0.0 | 3.2 | 0.18 | 0.66 | 0.66 | 95 | 1011.5 |
| 20260509152732 | 7 | 141 | 1.6 | 3.2 | 0.18 | 0.66 | 0.66 | 95 | 1011.5 |
| 20260509152244 | 7 | 139 | 1.6 | 3.2 | 0.18 | 0.64 | 0.64 | 95 | 1011.7 |
| 20260509151736 | 7 | 139 | 1.6 | 3.2 | 0.20 | 0.64 | 0.64 | 95 | 1011.9 |
| 20260509151230 | 7 | 180 | 1.6 | 3.2 | 0.20 | 0.61 | 0.61 | 95 | 1011.9 |
| 20260509150801 | 7 | 168 | 1.6 | 3.2 | 0.23 | 0.61 | 0.61 | 95 | 1012.0 |
| 20260509150254 | 7 | 168 | 1.6 | 3.2 | 0.20 | 0.58 | 0.58 | 94 | 1012.0 |
| 20260509145745 | 7 | 158 | 1.6 | 3.2 | 0.23 | 0.58 | 0.58 | 94 | 1011.9 |
| 20260509145238 | 7 | 183 | 1.6 | 3.2 | 0.20 | 0.56 | 0.56 | 94 | 1012.0 |
| 20260509144738 | 7 | 145 | 1.6 | 3.2 | 0.20 | 0.53 | 0.53 | 94 | 1012.0 |
| 20260509144233 | 7 | 200 | 1.6 | 3.2 | 0.20 | 0.53 | 0.53 | 94 | 1012.1 |
| 20260509143745 | 7 | 147 | 1.6 | 3.2 | 0.20 | 0.51 | 0.51 | 94 | 1011.9 |
| 20260509143239 | 7 | 198 | 1.6 | 4.8 | 0.18 | 0.48 | 0.48 | 94 | 1012.0 |
| 20260509142732 | 7 | 145 | 1.6 | 4.8 | 0.15 | 0.46 | 0.46 | 94 | 1011.9 |
| 20260509142245 | 7 | 147 | 0.0 | 0.0 | 0.18 | 0.46 | 0.46 | 94 | 1011.8 |
| 20260509141758 | 7 | 131 | 0.0 | 0.0 | 0.15 | 0.43 | 0.43 | 94 | 1011.7 |
| 20260509141229 | 7 | 193 | 0.0 | 1.6 | 0.13 | 0.41 | 0.41 | 94 | 1011.7 |
| 20260509140802 | 7 | 178 | 0.0 | 3.2 | 0.10 | 0.38 | 0.38 | 94 | 1011.6 |
| 20260509140233 | 7 | 195 | 0.0 | 0.0 | 0.10 | 0.38 | 0.38 | 94 | 1011.6 |
| 20260509135727 | 7 | 195 | 0.0 | 0.0 | 0.10 | 0.36 | 0.36 | 94 | 1011.5 |
| 20260509135237 | 7 | 195 | 0.0 | 0.0 | 0.10 | 0.36 | 0.36 | 94 | 1011.5 |
| 20260509134731 | 7 | 195 | 0.0 | 0.0 | 0.08 | 0.33 | 0.33 | 94 | 1011.7 |
| 20260509134245 | 7 | 191 | 0.0 | 0.0 | 0.08 | 0.33 | 0.33 | 94 | 1011.4 |
| 20260509133738 | 6 | 191 | 0.0 | 0.0 | 0.05 | 0.30 | 0.30 | 94 | 1011.5 |
| 20260509133253 | 6 | 194 | 0.0 | 0.0 | 0.05 | 0.30 | 0.30 | 94 | 1011.5 |
| 20260509132746 | 6 | 194 | 0.0 | 0.0 | 0.05 | 0.30 | 0.30 | 94 | 1011.7 |
| 20260509132238 | 6 | 194 | 0.0 | 0.0 | 0.05 | 0.28 | 0.28 | 94 | 1011.6 |
| 20260509131730 | 6 | 194 | 0.0 | 0.0 | 0.08 | 0.28 | 0.28 | 94 | 1011.6 |
| 20260509131243 | 6 | 194 | 0.0 | 0.0 | 0.08 | 0.28 | 0.28 | 94 | 1011.7 |